Location: Mycheilin
(52.1667°N, 4.2500°W)
Time: 04:15:59
(UTC+00:00)

Daily predictions for brighter satellites

Satellite Brightness Start Highest point End
(mag) Time Altitude Azimuth Time Altitude Azimuth Time Altitude Azimuth
Cosmos 2369 Rocket 4.5 02:38:57 20° NNE 02:39:00 20° NNE 02:43:07 10° ENE
ATLAS 2AS CENTAUR R/B 4.0 02:43:18 38° N 02:43:18 38° N 02:49:33 10° NE
CZ-4C R/B 4.3 02:49:28 23° ENE 02:49:28 23° ENE 02:51:59 10° NE
Cosmos 2344 4.4 02:49:19 45° N 02:49:19 45° N 02:57:59 10° ENE
Cosmos 2333 Rocket 4.0 03:07:47 26° NNE 03:07:47 26° NNE 03:10:14 10° NNE
Cosmos 2322 Rocket 4.3 03:26:48 18° N 03:26:48 18° N 03:29:02 10° NNE
Cosmos 2237 Rocket 3.4 03:34:18 39° NE 03:34:18 39° NE 03:37:51 10° NE
USA 215 3.4 03:32:49 10° ENE 03:38:28 67° E 03:38:28 67° E
Cosmos 2219 Rocket 3.6 03:42:44 31° N 03:42:44 31° N 03:45:51 10° NNE
ATLAS CENTAUR R/B 3.6 03:49:21 26° ENE 03:49:21 26° ENE 03:51:40 10° NE
Cosmos 2360 Rocket 4.0 03:55:08 20° N 03:55:08 20° N 03:57:55 10° NNE
NOSS 0 Rocket 4.3 03:56:43 59° NNE 03:56:43 59° NNE 04:01:47 10° NNE
Cosmos 1943 Rocket 2.9 03:55:25 47° NNE 03:55:58 49° NE 04:01:18 10° SE
MSX 4.4 03:51:17 10° NNE 03:56:54 53° E 03:57:22 51° ESE
NOSS 3-1 (A) 4.1 04:01:47 62° S 04:01:47 62° S 04:09:01 10° SSE
COSMOS 2428 3.9 04:04:37 33° N 04:04:37 33° N 04:08:18 10° NNE
CZ-2D R/B 4.5 04:01:18 10° N 04:01:45 12° NNW 04:01:45 12° NNW
Cosmos 1535 Rocket 4.5 03:58:36 10° N 04:04:52 80° ENE 04:04:52 80° ENE
SL-16 R/B 2.5 04:15:01 56° SE 04:15:33 59° ESE 04:21:08 10° NE
Cosmos 1980 4.1 04:23:06 51° NNW 04:23:06 51° NNW 04:27:47 10° NNE
Cosmos 2369 Rocket 2.6 04:20:47 24° NNW 04:24:15 61° NE 04:29:54 10° SE
SL-16 R/B 4.4 04:25:21 13° NNW 04:25:52 13° NNW 04:28:36 10° NNE
ADEOS II 4.0 04:26:42 10° N 04:28:29 18° NNW 04:28:29 18° NNW
CZ-4C R/B 2.4 04:34:38 57° NW 04:34:44 57° NW 04:41:08 10° NE
Lacrosse 5 2.4 04:36:01 48° SSE 04:36:01 48° SSE 04:39:50 10° SE
IDEFIX/ARIANE 42P 3.0 04:30:03 10° N 04:34:07 49° NNW 04:34:07 49° NNW
ATLAS 2AS CENTAUR R/B 4.0 04:30:43 21° NW 04:35:21 38° NNE 04:42:14 10° E
PAYLOAD A 4.0 04:31:03 10° NNE 04:35:54 74° ESE 04:36:42 60° SSE
Cosmos 2251 Rocket 3.6 04:36:06 64° S 04:36:50 76° ESE 04:42:09 10° NNE
Cosmos 1934 Rocket 3.9 04:31:15 10° NNW 04:37:28 64° W 04:37:35 64° W
COSMO-SKYMED 1 3.8 04:39:31 10° SE 04:43:36 41° ENE 04:47:42 10° N
Cosmos 2221 3.9 04:43:34 10° SSE 04:47:32 38° E 04:51:32 10° NNE
Meteor 2-3 Rocket 3.8 04:42:03 10° NNW 04:47:49 83° ENE 04:53:37 10° SSE
CZ-2C R/B 2.5 04:42:45 10° NNE 04:47:59 79° ESE 04:50:10 36° S
Cosmos 2333 Rocket 3.6 04:49:47 24° NNW 04:49:47 24° NNW 04:54:12 10° NNE
Cosmos-2242 4.4 04:54:23 27° NNW 04:54:23 27° NNW 04:56:32 10° N
SJ-6F 4.4 04:50:50 10° NNE 04:54:59 80° ESE 04:55:16 74° SSE
ALOS 4.1 04:51:29 10° NNE 04:55:39 31° E 04:59:47 10° SSE
Cosmos 1484 Rocket 4.2 04:52:09 10° NNE 04:55:52 38° E 04:59:37 10° SSE
Cosmos 1605 Rocket 3.9 04:55:29 10° NNW 05:01:40 64° W 05:07:43 10° S
STARLINK-1129 3.6 05:05:59 54° ENE 05:05:59 54° ENE 05:08:38 10° E
Cosmos 1455 4.3 05:09:28 17° NNW 05:09:28 17° NNW 05:10:30 10° N
ADEOS 3.5 05:02:00 10° N 05:07:10 60° WNW 05:08:26 46° WSW
STARLINK-1134 3.5 05:07:53 57° ENE 05:07:53 57° ENE 05:10:38 10° E
STARLINK-1135 3.4 05:10:10 61° ENE 05:10:10 61° ENE 05:13:00 10° E
ARIANE 5 R/B 4.5 05:06:52 10° NNW 05:08:15 14° NNW 05:08:15 14° NNW
GEOS 3 Rocket 4.4 05:04:53 10° NE 05:10:05 51° SE 05:14:28 14° SSW
Cosmos 2322 Rocket 4.5 05:08:58 10° NNW 05:10:59 12° N 05:13:00 10° NNE
STARLINK-1141 3.3 05:12:25 65° NE 05:12:25 65° NE 05:15:21 10° E
STARLINK-1140 3.2 05:14:30 69° NE 05:14:30 69° NE 05:17:32 10° E
Spot 2 3.8 05:12:06 10° N 05:16:08 64° WNW 05:16:46 55° WSW
STARLINK-1156 3.1 05:16:43 72° NNE 05:16:43 72° NNE 05:19:50 10° E
Cosmos 1153 Rocket 4.3 05:10:25 10° NNW 05:16:35 73° W 05:22:40 10° S
Cosmos 2237 Rocket 3.1 05:16:08 30° NW 05:16:47 31° NW 05:21:46 10° NNE
STARLINK-1148 3.0 05:18:49 74° NNE 05:18:49 74° NNE 05:22:02 10° E
Aureole 2 Rocket 3.1 05:20:03 37° SSE 05:20:03 37° SSE 05:22:06 10° SSE
Cosmos 407 Rocket 4.3 05:14:17 10° S 05:19:25 52° ESE 05:24:33 10° NNE
CZ-4B R/B 2.6 05:16:17 10° NNE 05:20:02 80° ESE 05:22:18 22° S
Meteor 1-27 4.2 05:15:00 10° S 05:20:32 81° E 05:26:08 10° NNE
NOSS 2-1 (E) 3.0 05:20:17 63° WNW 05:20:33 66° NW 05:24:35 10° NE
STARLINK-1158 2.9 05:21:02 74° N 05:21:03 74° N 05:24:20 10° E
USA 215 3.4 05:15:54 10° ENE 05:22:21 63° N 05:25:50 29° W
Meteor 2-10 Rocket 3.8 05:21:39 39° WSW 05:22:50 45° WNW 05:27:47 10° N
Meteor 1-31 Rocket 2.6 05:20:22 10° N 05:24:11 74° WNW 05:25:46 33° SSW
Cosmos 2219 Rocket 3.9 05:24:27 17° NW 05:25:37 18° NNW 05:29:23 10° NNE
Cosmos 1805 Rocket 3.9 05:22:01 10° N 05:26:21 66° ENE 05:30:39 10° SSE
ATLAS CENTAUR R/B 1.9 05:25:33 41° WNW 05:26:28 48° NW 05:30:42 10° NE
Sich 1 3.9 05:24:25 10° N 05:28:36 51° ENE 05:32:48 10° SSE
SKYMED 2 3.4 05:27:16 10° S 05:31:37 74° WSW 05:35:59 10° NNW
Cosmos 1727 Rocket 3.9 05:26:55 10° SSW 05:33:05 76° W 05:39:18 10° N
Cosmos 1500 Rocket 3.6 05:29:26 10° NNW 05:33:46 54° W 05:38:04 10° S
Cosmos 2173 Rocket 3.9 05:30:23 10° N 05:36:44 85° W 05:42:58 10° S
H-2A R/B 2.6 05:33:55 10° N 05:38:14 62° WNW 05:42:39 10° SSW
MSX 4.5 05:33:22 10° N 05:38:26 34° WNW 05:40:26 26° W
STARLINK-1153 2.6 05:38:52 61° WNW 05:39:15 75° N 05:42:12 10° E
STARLINK-1180 2.7 05:39:02 60° WNW 05:39:27 75° N 05:42:23 10° E
Cosmos 1943 Rocket 2.6 05:37:01 23° WNW 05:39:35 36° WSW 05:44:33 10° S
Cosmos 2360 Rocket 4.4 05:37:41 10° NNW 05:39:40 12° N 05:41:40 10° NNE
STARLINK-1174 2.7 05:39:30 59° WNW 05:39:55 75° N 05:42:51 10° E
STARLINK-1139 2.7 05:39:43 59° WNW 05:40:09 75° N 05:43:05 10° E
Cosmos 1356 Rocket 4.0 05:40:06 34° WNW 05:40:21 34° WNW 05:44:09 10° N
STARLINK-1133 2.7 05:39:56 59° WNW 05:40:22 75° N 05:43:19 10° E
STARLINK-1151 2.7 05:40:10 58° WNW 05:40:37 75° N 05:43:33 10° E
STARLINK-1160 2.7 05:40:48 57° WNW 05:41:16 76° N 05:44:12 10° E
STARLINK-1161 2.7 05:41:00 57° WNW 05:41:29 76° N 05:44:25 10° E
STARLINK-1145 2.7 05:41:14 56° WNW 05:41:43 76° N 05:44:40 10° E
STARLINK-1172 2.7 05:41:26 56° WNW 05:41:56 76° N 05:44:52 10° E
STARLINK-1182 2.7 05:41:53 55° WNW 05:42:23 76° N 05:45:20 10° E
STARLINK-1164 2.7 05:42:04 55° WNW 05:42:36 76° N 05:45:32 10° E
STARLINK-1168 2.7 05:42:18 54° WNW 05:42:49 76° N 05:45:46 10° E
Cosmos 1190 Rocket 4.4 05:38:09 10° SSW 05:43:24 68° ESE 05:48:41 10° NNE
STARLINK-1183 2.7 05:42:57 53° WNW 05:43:30 76° N 05:46:27 10° E
Cosmos 614 Rocket 4.0 05:38:24 10° SSW 05:43:34 86° ESE 05:48:49 10° NNE
STARLINK-1181 2.7 05:43:09 53° WNW 05:43:43 76° N 05:46:39 10° E
STARLINK-1149 2.5 05:43:41 60° WNW 05:44:04 77° N 05:46:48 10° E
STARLINK-1196 2.7 05:43:49 51° WNW 05:44:26 76° N 05:47:22 10° E
Okean O Rocket 3.1 05:40:30 10° NNE 05:44:37 38° E 05:48:42 10° SSE
STARLINK-1186 2.7 05:44:16 51° WNW 05:44:52 77° N 05:47:49 10° E
STARLINK-1185 2.7 05:44:28 50° WNW 05:45:06 77° N 05:48:01 10° E
STARLINK-1175 2.7 05:44:40 50° WNW 05:45:18 77° N 05:48:14 10° E
STARLINK-1147 2.7 05:44:54 50° WNW 05:45:32 77° N 05:48:28 10° E
STARLINK-1146 2.7 05:45:07 49° WNW 05:45:46 77° N 05:48:43 10° E
Cosmos 1743 Rocket 3.9 05:41:55 10° NNW 05:45:56 38° W 05:49:56 10° SSW
STARLINK-1152 2.7 05:45:20 49° WNW 05:46:00 77° N 05:48:56 10° E
STARLINK-1195 2.7 05:45:33 49° WNW 05:46:13 77° N 05:49:09 10° E
STARLINK-1137 2.7 05:45:46 48° WNW 05:46:27 77° N 05:49:23 10° E
STARLINK-1142 2.7 05:46:00 48° WNW 05:46:41 77° N 05:49:37 10° E
STARLINK-1127 2.7 05:46:12 48° WNW 05:46:54 77° N 05:49:50 10° E
STARLINK-1184 2.7 05:46:25 47° WNW 05:47:07 77° N 05:50:03 10° E
STARLINK-1193 2.7 05:46:39 47° WNW 05:47:21 77° N 05:50:18 10° E
STARLINK-1194 2.7 05:46:49 47° WNW 05:47:33 77° N 05:50:29 10° E
Cosmos 1869 3.2 05:45:18 10° SSW 05:49:17 80° W 05:53:17 10° N
STARLINK-1132 2.5 05:51:17 45° WNW 05:52:00 81° N 05:54:47 10° E
Cosmos 2100 Rocket 3.9 05:46:07 10° NNW 05:52:16 64° W 05:58:20 10° S
NOSS 3-4 (A) 4.5 05:46:00 10° NW 05:52:29 50° NNE 05:59:39 10° ESE
NOSS 3-4 (C) 4.5 05:46:05 10° NW 05:52:35 50° NNE 05:59:44 10° ESE
STARLINK-1150 2.5 05:53:40 41° WNW 05:54:29 82° N 05:57:16 10° E
STARLINK-1163 2.5 05:54:51 40° WNW 05:55:43 82° NNE 05:58:29 10° E
STARLINK-1162 2.9 05:55:24 32° WNW 05:56:46 81° N 05:59:59 10° E
STARLINK-1173 2.5 05:56:42 37° WNW 05:57:38 83° NNE 06:00:26 10° E
STARLINK-1177 2.5 05:56:51 37° WNW 05:57:48 83° NNE 06:00:34 10° E
STARLINK-1167 2.5 05:57:38 36° WNW 05:58:36 84° N 06:01:23 10° E
STARLINK-1157 2.9 05:57:18 30° WNW 05:58:44 81° N 06:01:57 10° E
SL-16 R/B 2.9 05:56:55 21° W 06:00:01 34° NW 06:05:11 10° NNE
STARLINK-1159 2.9 05:59:16 28° WNW 06:00:47 82° N 06:04:00 10° E
FENGYUN 3A 3.6 05:55:21 10° NNE 06:00:49 82° WNW 06:06:16 10° SSW
STARLINK-1171 2.9 06:01:24 27° WNW 06:03:01 83° N 06:06:14 10° E
STARLINK-1070 4.3 06:00:47 13° SSW 06:03:03 31° SSE 06:05:43 10° E
Cosmos 1842 Rocket 4.2 05:59:13 11° SW 06:03:10 34° WNW 06:07:18 10° N
STARLINK-1136 2.5 06:02:19 31° WNW 06:03:29 87° NNE 06:06:15 10° E
STARLINK-1124 4.0 06:01:29 15° SW 06:03:35 36° SSE 06:06:20 10° E
STARLINK-1066 4.3 06:01:39 12° SSW 06:03:58 32° SSE 06:06:38 10° E
STARLINK-1081 4.3 06:01:52 12° SSW 06:04:11 32° SSE 06:06:50 10° E
Cosmos 1000 Rocket 4.4 05:58:14 10° SSW 06:04:24 78° W 06:10:42 10° N
STARLINK-1069 4.2 06:02:18 12° SSW 06:04:38 32° SSE 06:07:18 10° E
Meteor PRIRODA 4.0 06:01:16 10° N 06:04:49 43° WNW 06:08:19 10° SW
STARLINK-1085 4.2 06:02:32 12° SSW 06:04:52 32° SSE 06:07:33 10° E
STARLINK-1155 2.9 06:03:22 26° WNW 06:05:04 84° NNE 06:08:17 10° E
STARLINK-1086 4.2 06:02:45 12° SSW 06:05:05 32° SSE 06:07:46 10° E
STARLINK-1095 4.2 06:02:58 12° SSW 06:05:19 32° SSE 06:07:59 10° E
Cosmos 1238 Rocket 3.7 05:59:07 10° NNW 06:05:24 72° W 06:10:46 10° S
STARLINK-1077 4.2 06:03:11 12° SSW 06:05:32 32° SSE 06:08:12 10° E
Cosmos 1459 Rocket 4.0 05:59:39 10° NNW 06:05:38 56° W 06:11:43 10° SSW
STARLINK-1075 4.2 06:03:24 12° SW 06:05:46 33° SSE 06:08:26 10° E
STARLINK-1093 4.2 06:03:36 12° SW 06:05:59 33° SSE 06:08:39 10° E
SJ-12 3.9 06:02:03 10° N 06:06:09 62° WNW 06:10:14 10° SSW
STARLINK-1074 4.2 06:03:49 12° SW 06:06:11 33° SSE 06:08:52 10° E
STARLINK-1087 4.2 06:04:02 12° SW 06:06:25 33° SSE 06:09:07 10° E
STARLINK-1088 4.2 06:04:14 12° SW 06:06:37 33° SSE 06:09:18 10° E
Cosmos 2061 Rocket 3.9 06:00:21 10° NNW 06:06:39 74° W 06:12:51 10° S
STARLINK-1115 4.2 06:04:28 12° SW 06:06:52 33° SSE 06:09:33 10° E
STARLINK-1076 4.2 06:04:41 12° SW 06:07:05 33° SSE 06:09:47 10° E
STARLINK-1092 4.2 06:04:55 12° SW 06:07:20 33° SSE 06:10:01 10° E
STARLINK-1166 2.9 06:05:38 24° WNW 06:07:25 85° N 06:10:39 10° E
STARLINK-1080 4.2 06:05:06 12° SW 06:07:32 33° SSE 06:10:13 10° E
STARLINK-1090 4.2 06:05:20 12° SW 06:07:45 33° SSE 06:10:28 10° E
Cosmos 2369 Rocket 3.0 06:03:05 10° NW 06:07:56 29° WSW 06:12:47 10° SSW
STARLINK-1089 4.2 06:05:33 12° SW 06:08:00 34° SSE 06:10:42 10° E
STARLINK-1107 4.1 06:05:45 12° SW 06:08:11 34° SSE 06:10:53 10° E
H-2A R/B 4.5 06:04:48 10° NNE 06:08:20 36° E 06:11:46 10° SSE
STARLINK-1109 4.1 06:05:59 12° SW 06:08:26 34° SSE 06:11:08 10° E
STARLINK-1091 4.1 06:06:12 12° SW 06:08:41 34° SSE 06:11:22 10° E
STARLINK-1072 4.1 06:06:24 12° SW 06:08:52 34° SSE 06:11:35 10° E
STARLINK-1096 4.1 06:06:37 12° SW 06:09:05 34° SSE 06:11:47 10° E
STARLINK-1079 4.1 06:06:51 11° SW 06:09:19 34° SSE 06:12:03 10° E
STARLINK-1165 2.9 06:07:41 23° WNW 06:09:34 86° NNE 06:12:47 10° E
STARLINK-1116 4.1 06:07:04 11° SW 06:09:34 34° SSE 06:12:17 10° E
STARLINK-1094 4.1 06:07:30 11° SW 06:10:01 35° SSE 06:12:43 10° E
STARLINK-1117 4.1 06:07:42 11° SW 06:10:14 35° SSE 06:12:56 10° E
STARLINK-1078 4.1 06:07:55 11° SW 06:10:27 35° SSE 06:13:10 10° E
Cosmos 921 Rocket 3.7 06:06:30 10° NW 06:10:31 34° W 06:14:28 10° SSW
STARLINK-1108 4.1 06:08:09 11° SW 06:10:40 35° SSE 06:13:23 10° E
STARLINK-1071 4.1 06:08:21 11° SW 06:10:53 35° SSE 06:13:35 10° E
STARLINK-1110 4.1 06:08:35 11° SW 06:11:07 35° SSE 06:13:51 10° E
Cosmos 1633 3.0 06:07:49 10° NNW 06:11:13 37° W 06:14:36 10° SSW
STARLINK-1122 4.1 06:09:01 11° SW 06:11:35 35° SSE 06:14:18 10° E
STARLINK-1169 2.9 06:09:45 22° WNW 06:11:42 87° N 06:14:56 10° E
STARLINK-1126 4.1 06:09:13 11° SW 06:11:48 35° SSE 06:14:32 10° E
STARLINK-1082 4.1 06:09:27 11° SW 06:12:02 36° SSE 06:14:46 10° E
STARLINK-1100 4.0 06:09:39 11° SW 06:12:14 36° SSE 06:14:58 10° E
STARLINK-1083 4.0 06:09:52 11° SW 06:12:28 36° SSE 06:15:12 10° E
STARLINK-1125 4.0 06:10:05 11° SW 06:12:41 36° SSE 06:15:26 10° E
SL-16 R/B 4.5 06:10:27 10° NNW 06:12:42 12° N 06:14:58 10° NE
STARLINK-1178 2.9 06:11:43 21° WNW 06:13:46 88° NNE 06:17:00 10° ESE
IDEFIX/ARIANE 42P 4.3 06:11:21 10° NNW 06:13:49 14° NW 06:14:57 13° WNW
USA 116 3.6 06:11:24 10° S 06:14:22 38° W 06:17:19 10° NNW
STARLINK-1120 2.9 06:13:42 20° WNW 06:15:49 89° N 06:19:03 10° ESE
NOAA 6 4.2 06:10:36 10° NNE 06:15:50 79° ESE 06:21:00 10° SSW
Helios 1A Rocket 3.9 06:11:46 10° NNE 06:15:51 51° E 06:19:53 10° S
Cosmos 1603 3.7 06:10:21 10° SW 06:16:02 66° NW 06:21:43 10° NNE
Cosmos 1725 Rocket 4.0 06:10:09 10° NNW 06:16:25 78° W 06:22:42 10° S
STARLINK-1170 2.3 06:15:15 22° WNW 06:16:46 84° SSW 06:19:26 10° ESE
Lacrosse 5 3.4 06:15:15 15° W 06:17:00 17° SW 06:20:16 10° SSW
MOS 1-B 4.3 06:11:57 10° NNE 06:17:46 76° WNW 06:23:34 10° SSW
STARLINK-1131 2.9 06:15:53 19° WNW 06:18:05 90° SW 06:21:19 10° ESE
CZ-4B DEB 4.2 06:13:38 10° NNE 06:19:08 77° WNW 06:24:36 10° SSW
COSMO-SKYMED 1 3.5 06:16:12 10° SSW 06:19:54 27° W 06:23:38 10° NW
NOSS 2-1 (C) 4.4 06:18:00 16° WNW 06:20:13 28° NNW 06:23:56 10° NE
STARLINK-1190 2.9 06:18:01 18° WNW 06:20:19 89° S 06:23:34 10° ESE
Cosmos 1633 Rocket 3.0 06:16:27 10° NNW 06:20:51 83° W 06:25:14 10° S
Cosmos 1943 3.1 06:15:19 10° SW 06:20:56 74° WNW 06:26:37 10° NNE
BREEZE-M DEB (TANK) 3.1 06:15:54 14° W 06:21:25 69° SSW 06:25:12 10° ESE
Cosmos 1656 Rocket 4.0 06:17:00 10° NW 06:22:22 44° WSW 06:27:44 10° S
Cosmos 1862 3.4 06:18:39 10° NNW 06:22:31 50° W 06:26:21 10° S
Cosmos 2123 Rocket 4.1 06:16:53 10° S 06:23:14 89° WNW 06:29:34 10° N
Cosmos 1666 Rocket 3.5 06:19:01 10° NNW 06:23:27 66° W 06:27:49 10° S
NOSS 2-1 (D) 4.5 06:22:00 15° WNW 06:24:21 27° NNW 06:28:02 10° NE
CZ-4C R/B 3.6 06:19:48 12° WNW 06:24:34 32° N 06:30:44 10° NE
Cosmos 2221 3.4 06:21:34 10° SW 06:25:13 27° WNW 06:28:54 10° N
CZ-2C R/B 3.8 06:21:49 10° N 06:25:39 21° NW 06:29:26 10° WSW
CZ-4B R/B 3.2 06:21:59 10° NNE 06:27:21 85° ESE 06:32:40 10° SSW
Cosmos 1802 Rocket 4.3 06:21:25 10° NNW 06:27:33 48° W 06:33:39 10° SSW
ATLAS 2AS CENTAUR R/B 3.2 06:19:47 10° NW 06:27:36 71° NE 06:34:46 10° ESE
Cosmos 1763 Rocket 3.8 06:22:50 10° NNW 06:28:12 75° ENE 06:33:31 10° SSE
Cosmos 1484 Rocket 3.9 06:26:53 10° N 06:30:09 25° WNW 06:33:26 10° WSW
ALOS 2.7 06:28:48 10° N 06:33:10 40° WNW 06:37:31 10° SW
Cosmos 489 Rocket 4.5 06:27:15 10° NNW 06:33:33 80° WSW 06:39:47 10° SSE
Cosmos 2333 Rocket 4.3 06:33:54 10° NNW 06:36:08 12° N 06:38:23 10° NNE
Iridium 51 4.2 06:33:19 10° S 06:37:12 87° E 06:40:50 10° N
STARLINK-1179 2.5 06:35:04 13° W 06:37:20 65° SSW 06:39:57 10° ESE
STARLINK-1176 2.6 06:35:40 13° W 06:38:00 65° SSW 06:40:40 10° ESE
ADEOS Rocket 3.3 06:32:04 10° S 06:38:18 60° W 06:45:19 10° NNW
TELKOM 3 3.8 06:38:27 11° W 06:40:17 33° SSW 06:42:14 10° SE
Cosmos 192 4.3 06:35:44 10° NNW 06:40:39 76° WSW 06:45:33 10° SSE
STARLINK-1129 3.0 06:38:38 11° WNW 06:41:47 75° SSW 06:45:03 10° ESE
STARLINK-1134 3.0 06:40:30 10° WNW 06:43:44 74° SSW 06:47:00 10° ESE
CZ-2C R/B 4.2 06:39:49 10° SSE 06:44:11 63° ENE 06:48:36 10° N
STARLINK-1104 4.5 06:40:28 10° SW 06:44:23 49° SSE 06:48:18 10° ENE
Cosmos 1340 2.6 06:41:58 10° NNW 06:45:43 64° W 06:49:25 10° S
STARLINK-1135 3.0 06:42:49 10° WNW 06:46:04 72° SSW 06:49:19 10° ESE
Cosmos 1346 Rocket 2.7 06:42:41 10° NNW 06:46:37 79° W 06:50:30 10° S
GEOS 3 Rocket 4.0 06:43:01 10° NE 06:48:06 49° NW 06:53:14 10° WSW
STARLINK-1141 3.1 06:45:14 10° WNW 06:48:30 71° SSW 06:51:45 10° ESE
STARLINK-1144 4.4 06:45:11 10° SW 06:49:08 51° SSE 06:53:05 10° ENE
COSMOS 2455 3.4 06:43:34 10° NW 06:49:33 59° NE 06:55:30 10° SE
STARLINK-1140 3.1 06:47:22 10° WNW 06:50:38 69° SSW 06:53:53 10° ESE
CZ-4 R/B 4.3 06:49:03 10° NE 06:52:20 23° E 06:55:34 10° SSE
STARLINK-1156 3.1 06:49:43 10° WNW 06:52:59 68° SSW 06:56:14 10° ESE
Cosmos 2016 Rocket 4.5 06:47:27 10° NNW 06:53:06 37° W 06:58:46 10° SSW
STARLINK-1103 4.3 06:49:58 10° SW 06:53:56 54° SSE 06:57:54 10° ENE
STARLINK-1148 3.2 06:51:53 10° WNW 06:55:08 66° SSW 06:58:24 10° ESE
STARLINK-1128 4.2 06:52:00 10° SW 06:55:56 56° SSE 06:59:53 10° ENE
